Time,TemperatureF,DewpointF,PressureIn,WindDirection,WindDirectionDegrees,WindSpeedMPH,WindSpeedGustMPH,Humidity,HourlyPrecipIn,Conditions,Clouds,dailyrainin,SoftwareType,DateUTC
2013-02-17 00:00:00,20.9,12.0,29.94,East,98,0.0,0.0,68,0.00,,,0.00,Wunderground v.1.15,2013-02-17 05:00:00,
2013-02-17 00:05:00,20.9,12.0,29.94,ESE,110,0.0,0.0,68,0.00,,,0.00,Wunderground v.1.15,2013-02-17 05:05:00,
2013-02-17 00:10:00,20.8,11.9,29.94,ESE,110,0.0,0.0,68,0.00,,,0.00,Wunderground v.1.15,2013-02-17 05:10:00,
2013-02-17 00:15:00,20.7,12.1,29.94,ESE,102,1.0,1.0,69,0.00,,,0.00,Wunderground v.1.15,2013-02-17 05:15:00,
2013-02-17 00:25:00,20.7,11.5,29.93,ESE,106,1.0,1.0,67,0.00,,,0.00,Wunderground v.1.15,2013-02-17 05:25:00,
2013-02-17 00:35:00,20.5,11.6,29.93,ESE,123,0.0,2.0,68,0.00,,,0.00,Wunderground v.1.15,2013-02-17 05:35:00,
2013-02-17 00:40:00,20.6,11.0,29.93,East,94,1.0,2.0,66,0.00,,,0.00,Wunderground v.1.15,2013-02-17 05:40:00,
2013-02-17 00:45:00,20.7,11.5,29.93,ESE,103,1.0,2.0,67,0.00,,,0.00,Wunderground v.1.15,2013-02-17 05:45:00,
2013-02-17 00:50:00,20.7,11.5,29.93,East,84,1.0,2.0,67,0.00,,,0.00,Wunderground v.1.15,2013-02-17 05:50:00,
2013-02-17 00:55:00,20.8,11.6,29.93,East,91,1.0,2.0,67,0.00,,,0.00,Wunderground v.1.15,2013-02-17 05:55:00,
2013-02-17 01:05:00,20.8,11.2,29.93,ESE,116,2.0,3.0,66,0.00,,,0.00,Wunderground v.1.15,2013-02-17 06:05:00,
2013-02-17 01:10:00,20.8,10.9,29.92,ESE,116,2.0,2.0,65,0.00,,,0.00,Wunderground v.1.15,2013-02-17 06:10:00,
2013-02-17 01:15:00,20.8,11.2,29.92,ESE,117,1.0,2.0,66,0.00,,,0.00,Wunderground v.1.15,2013-02-17 06:15:00,
2013-02-17 01:25:00,20.8,11.2,29.92,East,89,2.0,2.0,66,0.00,,,0.00,Wunderground v.1.15,2013-02-17 06:25:00,
2013-02-17 01:30:00,20.8,10.5,29.92,East,98,2.0,3.0,64,0.00,,,0.00,Wunderground v.1.15,2013-02-17 06:30:00,
2013-02-17 01:40:00,20.8,10.5,29.92,East,89,2.0,2.0,64,0.00,,,0.00,Wunderground v.1.15,2013-02-17 06:40:00,
2013-02-17 01:45:00,20.8,10.9,29.92,ENE,75,2.0,2.0,65,0.00,,,0.00,Wunderground v.1.15,2013-02-17 06:45:00,
2013-02-17 01:55:00,20.8,10.5,29.92,ENE,68,1.0,2.0,64,0.00,,,0.00,Wunderground v.1.15,2013-02-17 06:55:00,
2013-02-17 02:05:00,20.7,9.4,29.92,ESE,120,1.0,1.0,61,0.00,,,0.00,Wunderground v.1.15,2013-02-17 07:05:00,
2013-02-17 02:10:00,20.6,9.6,29.91,ESE,120,0.0,0.0,62,0.00,,,0.00,Wunderground v.1.15,2013-02-17 07:10:00,
2013-02-17 02:20:00,20.4,9.1,29.91,ESE,120,0.0,0.0,61,0.00,,,0.00,Wunderground v.1.15,2013-02-17 07:20:00,
2013-02-17 02:25:00,20.3,9.0,29.91,ESE,120,0.0,0.0,61,0.00,,,0.00,Wunderground v.1.15,2013-02-17 07:25:00,
2013-02-17 02:30:00,20.3,10.1,29.91,ESE,120,0.0,0.0,64,0.00,,,0.00,Wunderground v.1.15,2013-02-17 07:30:00,
2013-02-17 02:40:00,20.2,10.0,29.91,South,172,0.0,0.0,64,0.00,,,0.00,Wunderground v.1.15,2013-02-17 07:40:00,
2013-02-17 02:50:00,20.3,10.4,29.91,South,172,0.0,0.0,65,0.00,,,0.00,Wunderground v.1.15,2013-02-17 07:50:00,
2013-02-17 02:55:00,20.4,10.1,29.91,NNE,27,1.0,6.0,64,0.00,,,0.00,Wunderground v.1.15,2013-02-17 07:55:00,
2013-02-17 03:05:00,20.2,11.0,29.91,ENE,68,4.0,8.0,67,0.00,,,0.00,Wunderground v.1.15,2013-02-17 08:05:00,
2013-02-17 03:10:00,20.1,11.9,29.91,ENE,68,4.0,4.0,70,0.00,,,0.00,Wunderground v.1.15,2013-02-17 08:10:00,
2013-02-17 03:15:00,20.0,11.5,29.92,East,80,4.0,4.0,69,0.00,,,0.00,Wunderground v.1.15,2013-02-17 08:15:00,
2013-02-17 03:25:00,19.9,12.9,29.92,NNW,348,3.0,4.0,74,0.00,,,0.00,Wunderground v.1.15,2013-02-17 08:25:00,
2013-02-17 03:30:00,19.6,13.0,29.92,NNE,15,2.0,3.0,75,0.00,,,0.00,Wunderground v.1.15,2013-02-17 08:30:00,
2013-02-17 03:35:00,19.4,13.1,29.92,NW,321,2.0,3.0,76,0.00,,,0.00,Wunderground v.1.15,2013-02-17 08:35:00,
2013-02-17 03:40:00,19.3,13.0,29.92,North,4,2.0,2.0,76,0.00,,,0.00,Wunderground v.1.15,2013-02-17 08:40:00,
2013-02-17 03:50:00,19.1,13.4,29.92,NW,325,1.0,1.0,78,0.00,,,0.00,Wunderground v.1.15,2013-02-17 08:50:00,
2013-02-17 04:00:00,19.0,13.6,29.92,NNW,345,1.0,2.0,79,0.00,,,0.00,Wunderground v.1.15,2013-02-17 09:00:00,
2013-02-17 04:05:00,18.9,13.5,29.92,North,4,1.0,2.0,79,0.00,,,0.00,Wunderground v.1.15,2013-02-17 09:05:00,
2013-02-17 04:10:00,18.9,13.5,29.92,North,8,2.0,2.0,79,0.00,,,0.00,Wunderground v.1.15,2013-02-17 09:10:00,
2013-02-17 04:20:00,18.8,13.9,29.93,North,11,1.0,2.0,81,0.00,,,0.00,Wunderground v.1.15,2013-02-17 09:20:00,
2013-02-17 04:25:00,18.7,14.1,29.93,NNW,340,2.0,2.0,82,0.00,,,0.00,Wunderground v.1.15,2013-02-17 09:25:00,
2013-02-17 04:30:00,18.8,14.5,29.93,North,349,2.0,3.0,83,0.00,,,0.00,Wunderground v.1.15,2013-02-17 09:30:00,
2013-02-17 04:40:00,18.8,14.8,29.93,NNE,21,4.0,4.0,84,0.00,,,0.00,Wunderground v.1.15,2013-02-17 09:40:00,
2013-02-17 04:55:00,18.1,13.8,29.93,NNE,30,5.0,5.0,83,0.00,,,0.00,Wunderground v.1.15,2013-02-17 09:55:00,
2013-02-17 05:00:00,18.0,14.0,29.93,NNE,25,4.0,4.0,84,0.00,,,0.00,Wunderground v.1.15,2013-02-17 10:00:00,
2013-02-17 05:10:00,17.9,13.9,29.93,NNE,31,4.0,4.0,84,0.00,,,0.00,Wunderground v.1.15,2013-02-17 10:10:00,
2013-02-17 05:15:00,17.8,13.8,29.93,NNE,17,4.0,4.0,84,0.00,,,0.00,Wunderground v.1.15,2013-02-17 10:15:00,
2013-02-17 05:25:00,17.7,13.4,29.94,NNE,28,5.0,7.0,83,0.00,,,0.00,Wunderground v.1.15,2013-02-17 10:25:00,
2013-02-17 05:30:00,17.6,13.3,29.94,NNE,15,6.0,7.0,83,0.00,,,0.00,Wunderground v.1.15,2013-02-17 10:30:00,
2013-02-17 05:40:00,17.4,13.1,29.94,NNE,20,6.0,6.0,83,0.00,,,0.00,Wunderground v.1.15,2013-02-17 10:40:00,
2013-02-17 05:45:00,17.3,13.0,29.94,NNE,27,5.0,6.0,83,0.00,,,0.00,Wunderground v.1.15,2013-02-17 10:45:00,
2013-02-17 05:55:00,17.0,13.0,29.94,NNE,26,4.0,5.0,84,0.00,,,0.00,Wunderground v.1.15,2013-02-17 10:55:00,
2013-02-17 06:05:00,16.5,12.8,29.94,NNE,21,3.0,4.0,85,0.00,,,0.00,Wunderground v.1.15,2013-02-17 11:05:00,
2013-02-17 06:15:00,16.6,12.9,29.94,NNW,342,4.0,4.0,85,0.00,,,0.00,Wunderground v.1.15,2013-02-17 11:15:00,
2013-02-17 06:25:00,16.3,12.3,29.94,North,349,3.0,4.0,84,0.00,,,0.00,Wunderground v.1.15,2013-02-17 11:25:00,
2013-02-17 06:35:00,16.1,12.1,29.94,NNW,340,3.0,3.0,84,0.00,,,0.00,Wunderground v.1.15,2013-02-17 11:35:00,
2013-02-17 06:40:00,16.1,11.8,29.94,North,352,3.0,3.0,83,0.00,,,0.00,Wunderground v.1.15,2013-02-17 11:40:00,
2013-02-17 06:50:00,16.0,12.0,29.95,NNW,330,4.0,4.0,84,0.00,,,0.00,Wunderground v.1.15,2013-02-17 11:50:00,
2013-02-17 07:00:00,15.8,12.1,29.95,North,10,3.0,3.0,85,0.00,,,0.00,Wunderground v.1.15,2013-02-17 12:00:00,
2013-02-17 07:10:00,15.8,12.4,29.95,North,351,3.0,3.0,86,0.00,,,0.00,Wunderground v.1.15,2013-02-17 12:10:00,
2013-02-17 07:20:00,15.9,12.7,29.95,NNW,342,3.0,4.0,87,0.00,,,0.00,Wunderground v.1.15,2013-02-17 12:20:00,
2013-02-17 07:30:00,16.0,12.8,29.95,North,356,3.0,4.0,87,0.00,,,0.00,Wunderground v.1.15,2013-02-17 12:30:00,
2013-02-17 07:35:00,16.2,13.0,29.95,NNW,347,4.0,6.0,87,0.00,,,0.00,Wunderground v.1.15,2013-02-17 12:35:00,
2013-02-17 07:40:00,16.3,13.1,29.95,NNE,31,4.0,5.0,87,0.00,,,0.00,Wunderground v.1.15,2013-02-17 12:40:00,
2013-02-17 07:50:00,16.4,13.2,29.96,NNE,18,6.0,6.0,87,0.00,,,0.00,Wunderground v.1.15,2013-02-17 12:50:00,
2013-02-17 08:00:00,16.5,13.3,29.96,NNE,13,5.0,6.0,87,0.00,,,0.00,Wunderground v.1.15,2013-02-17 13:00:00,
2013-02-17 08:05:00,16.6,13.1,29.96,North,9,5.0,6.0,86,0.00,,,0.00,Wunderground v.1.15,2013-02-17 13:05:00,
2013-02-17 08:10:00,16.6,13.1,29.96,NNW,345,5.0,5.0,86,0.00,,,0.00,Wunderground v.1.15,2013-02-17 13:10:00,
2013-02-17 08:20:00,16.8,13.6,29.96,NNW,338,5.0,6.0,87,0.00,,,0.00,Wunderground v.1.15,2013-02-17 13:20:00,
2013-02-17 08:30:00,16.6,12.6,29.96,North,349,5.0,5.0,84,0.00,,,0.00,Wunderground v.1.15,2013-02-17 13:30:00,
2013-02-17 08:35:00,16.5,12.5,29.96,NNW,338,6.0,6.0,84,0.00,,,0.00,Wunderground v.1.15,2013-02-17 13:35:00,
2013-02-17 08:40:00,16.4,12.4,29.97,NW,314,6.0,6.0,84,0.00,,,0.00,Wunderground v.1.15,2013-02-17 13:40:00,
2013-02-17 08:50:00,16.1,11.0,29.97,North,352,7.0,7.0,80,0.00,,,0.00,Wunderground v.1.15,2013-02-17 13:50:00,
2013-02-17 09:00:00,15.8,10.7,29.97,NNW,331,7.0,7.0,80,0.00,,,0.00,Wunderground v.1.15,2013-02-17 14:00:00,
2013-02-17 09:05:00,16.1,11.0,29.97,North,7,6.0,9.0,80,0.00,,,0.00,Wunderground v.1.15,2013-02-17 14:05:00,
2013-02-17 09:10:00,16.0,10.9,29.97,NNW,339,7.0,8.0,80,0.00,,,0.00,Wunderground v.1.15,2013-02-17 14:10:00,
2013-02-17 09:20:00,16.0,11.2,29.97,NNW,337,7.0,7.0,81,0.00,,,0.00,Wunderground v.1.15,2013-02-17 14:20:00,
2013-02-17 09:25:00,16.0,10.9,29.97,North,350,7.0,10.0,80,0.00,,,0.00,Wunderground v.1.15,2013-02-17 14:25:00,
2013-02-17 09:30:00,15.8,10.2,29.97,NNW,341,7.0,7.0,78,0.00,,,0.00,Wunderground v.1.15,2013-02-17 14:30:00,
2013-02-17 09:40:00,15.9,10.3,29.98,NNE,18,8.0,9.0,78,0.00,,,0.00,Wunderground v.1.15,2013-02-17 14:40:00,
2013-02-17 09:50:00,15.5,9.6,29.98,NNE,18,8.0,11.0,77,0.00,,,0.00,Wunderground v.1.15,2013-02-17 14:50:00,
2013-02-17 09:55:00,15.8,9.9,29.98,NNW,340,7.0,11.0,77,0.00,,,0.00,Wunderground v.1.15,2013-02-17 14:55:00,
2013-02-17 10:05:00,15.0,8.8,29.98,NNW,340,8.0,11.0,76,0.00,,,0.00,Wunderground v.1.15,2013-02-17 15:05:00,
2013-02-17 10:10:00,15.5,9.0,29.98,NNE,18,7.0,14.0,75,0.00,,,0.00,Wunderground v.1.15,2013-02-17 15:10:00,
2013-02-17 10:20:00,15.5,8.7,29.99,NNE,12,8.0,13.0,74,0.00,,,0.00,Wunderground v.1.15,2013-02-17 15:20:00,
2013-02-17 10:25:00,15.5,9.0,29.99,NNE,13,8.0,13.0,75,0.00,,,0.00,Wunderground v.1.15,2013-02-17 15:25:00,
2013-02-17 10:30:00,15.5,9.0,29.99,NNE,20,8.0,8.0,75,0.00,,,0.00,Wunderground v.1.15,2013-02-17 15:30:00,
2013-02-17 10:40:00,15.4,8.3,29.99,NNE,25,7.0,7.0,73,0.00,,,0.00,Wunderground v.1.15,2013-02-17 15:40:00,
2013-02-17 10:50:00,15.2,8.1,29.99,NNW,340,7.0,7.0,73,0.00,,,0.00,Wunderground v.1.15,2013-02-17 15:50:00,
2013-02-17 11:00:00,15.4,8.3,29.99,NNE,19,7.0,7.0,73,0.00,,,0.00,Wunderground v.1.15,2013-02-17 16:00:00,
2013-02-17 11:05:00,15.2,8.4,29.99,North,359,6.0,8.0,74,0.00,,,0.00,Wunderground v.1.15,2013-02-17 16:05:00,
2013-02-17 11:10:00,14.9,8.1,29.99,NNW,342,7.0,9.0,74,0.00,,,0.00,Wunderground v.1.15,2013-02-17 16:10:00,
2013-02-17 11:20:00,15.6,8.5,29.99,NNE,22,6.0,7.0,73,0.00,,,0.00,Wunderground v.1.15,2013-02-17 16:20:00,
2013-02-17 11:30:00,16.1,9.3,29.99,NNW,338,7.0,7.0,74,0.00,,,0.00,Wunderground v.1.15,2013-02-17 16:30:00,
2013-02-17 11:40:00,15.8,8.7,29.99,North,11,6.0,6.0,73,0.00,,,0.00,Wunderground v.1.15,2013-02-17 16:40:00,
2013-02-17 11:50:00,16.2,9.7,29.99,North,353,7.0,7.0,75,0.00,,,0.00,Wunderground v.1.15,2013-02-17 16:50:00,
2013-02-17 12:00:00,16.5,9.7,29.98,North,355,7.0,9.0,74,0.00,,,0.00,Wunderground v.1.15,2013-02-17 17:00:00,
2013-02-17 12:10:00,15.9,9.1,29.98,NNW,330,7.0,7.0,74,0.00,,,0.00,Wunderground v.1.15,2013-02-17 17:10:00,
2013-02-17 12:20:00,15.8,8.7,29.98,NW,320,7.0,7.0,73,0.00,,,0.00,Wunderground v.1.15,2013-02-17 17:20:00,
2013-02-17 12:30:00,15.7,9.5,29.97,WNW,300,6.0,7.0,76,0.00,,,0.00,Wunderground v.1.15,2013-02-17 17:30:00,
2013-02-17 12:40:00,16.0,10.6,29.98,NW,314,6.0,6.0,79,0.00,,,0.00,Wunderground v.1.15,2013-02-17 17:40:00,
2013-02-17 12:50:00,16.0,10.3,29.97,WNW,292,6.0,6.0,78,0.00,,,0.00,Wunderground v.1.15,2013-02-17 17:50:00,
2013-02-17 13:00:00,16.6,7.9,29.97,WNW,291,8.0,8.0,68,0.00,,,0.00,Wunderground v.1.15,2013-02-17 18:00:00,
2013-02-17 13:05:00,16.1,7.4,29.98,WNW,293,8.0,8.0,68,0.00,,,0.00,Wunderground v.1.15,2013-02-17 18:05:00,
2013-02-17 13:15:00,16.1,6.4,29.98,WNW,298,8.0,8.0,65,0.00,,,0.00,Wunderground v.1.15,2013-02-17 18:15:00,
2013-02-17 13:25:00,15.7,6.7,29.98,North,357,7.0,10.0,67,0.00,,,0.00,Wunderground v.1.15,2013-02-17 18:25:00,
2013-02-17 13:30:00,15.3,5.3,29.99,NW,313,9.0,9.0,64,0.00,,,0.00,Wunderground v.1.15,2013-02-17 18:30:00,
2013-02-17 13:40:00,14.8,4.8,29.98,WNW,300,8.0,9.0,64,0.00,,,0.00,Wunderground v.1.15,2013-02-17 18:40:00,
2013-02-17 13:45:00,14.6,4.3,29.99,NW,323,8.0,11.0,63,0.00,,,0.00,Wunderground v.1.15,2013-02-17 18:45:00,
2013-02-17 13:55:00,14.4,8.2,29.99,NW,306,7.0,10.0,76,0.00,,,0.00,Wunderground v.1.15,2013-02-17 18:55:00,
2013-02-17 14:00:00,14.0,6.6,29.99,WNW,302,7.0,10.0,72,0.00,,,0.00,Wunderground v.1.15,2013-02-17 19:00:00,
2013-02-17 14:05:00,14.1,7.0,29.99,WNW,297,8.0,10.0,73,0.00,,,0.00,Wunderground v.1.15,2013-02-17 19:05:00,
2013-02-17 14:10:00,14.3,6.6,29.99,NE,44,7.0,8.0,71,0.00,,,0.00,Wunderground v.1.15,2013-02-17 19:10:00,
2013-02-17 14:20:00,13.3,5.3,29.99,WNW,286,9.0,9.0,70,0.00,,,0.00,Wunderground v.1.15,2013-02-17 19:20:00,
2013-02-17 14:25:00,13.3,5.0,29.98,NW,310,9.0,9.0,69,0.00,,,0.00,Wunderground v.1.15,2013-02-17 19:25:00,
2013-02-17 14:35:00,13.7,4.8,29.99,NW,304,8.0,10.0,67,0.00,,,0.00,Wunderground v.1.15,2013-02-17 19:35:00,
2013-02-17 14:40:00,13.5,4.2,29.99,WNW,297,10.0,10.0,66,0.00,,,0.00,Wunderground v.1.15,2013-02-17 19:40:00,
2013-02-17 14:50:00,13.7,4.4,30.00,WNW,296,7.0,8.0,66,0.00,,,0.00,Wunderground v.1.15,2013-02-17 19:50:00,
2013-02-17 15:00:00,13.1,5.5,30.00,WNW,283,10.0,17.0,71,0.00,,,0.00,Wunderground v.1.15,2013-02-17 20:00:00,
2013-02-17 15:05:00,12.3,5.9,30.00,NW,321,10.0,17.0,75,0.00,,,0.00,Wunderground v.1.15,2013-02-17 20:05:00,
2013-02-17 15:15:00,13.2,4.6,30.00,WNW,300,9.0,10.0,68,0.00,,,0.00,Wunderground v.1.15,2013-02-17 20:15:00,
2013-02-17 15:25:00,11.9,4.6,30.00,NW,316,10.0,14.0,72,0.00,,,0.00,Wunderground v.1.15,2013-02-17 20:25:00,
2013-02-17 15:35:00,11.7,4.1,30.00,NW,304,9.0,11.0,71,0.00,,,0.00,Wunderground v.1.15,2013-02-17 20:35:00,
2013-02-17 15:45:00,12.0,4.7,30.01,WNW,302,8.0,15.0,72,0.00,,,0.00,Wunderground v.1.15,2013-02-17 20:45:00,
2013-02-17 15:55:00,12.2,4.3,30.02,East,93,7.0,9.0,70,0.00,,,0.00,Wunderground v.1.15,2013-02-17 20:55:00,
2013-02-17 16:00:00,12.2,4.3,30.02,NNW,335,8.0,8.0,70,0.00,,,0.00,Wunderground v.1.15,2013-02-17 21:00:00,
2013-02-17 16:05:00,12.2,3.3,30.02,NNW,332,8.0,8.0,67,0.00,,,0.00,Wunderground v.1.15,2013-02-17 21:05:00,
2013-02-17 16:10:00,12.4,3.5,30.02,NW,305,9.0,9.0,67,0.00,,,0.00,Wunderground v.1.15,2013-02-17 21:10:00,
2013-02-17 16:20:00,12.3,2.8,30.03,WSW,249,9.0,9.0,65,0.00,,,0.00,Wunderground v.1.15,2013-02-17 21:20:00,
2013-02-17 16:30:00,12.6,3.4,30.03,NW,315,7.0,13.0,66,0.00,,,0.00,Wunderground v.1.15,2013-02-17 21:30:00,
2013-02-17 16:40:00,12.5,3.6,30.04,NE,47,7.0,7.0,67,0.00,,,0.00,Wunderground v.1.15,2013-02-17 21:40:00,
2013-02-17 16:50:00,12.5,3.9,30.04,WNW,300,7.0,10.0,68,0.00,,,0.00,Wunderground v.1.15,2013-02-17 21:50:00,
2013-02-17 17:00:00,12.6,4.0,30.05,NW,305,7.0,8.0,68,0.00,,,0.00,Wunderground v.1.15,2013-02-17 22:00:00,
2013-02-17 17:10:00,12.7,4.1,30.05,NW,314,6.0,6.0,68,0.00,,,0.00,Wunderground v.1.15,2013-02-17 22:10:00,
2013-02-17 17:20:00,12.7,3.8,30.04,West,278,7.0,12.0,67,0.00,,,0.00,Wunderground v.1.15,2013-02-17 22:20:00,
2013-02-17 17:25:00,12.6,3.7,30.05,NW,309,6.0,12.0,67,0.00,,,0.00,Wunderground v.1.15,2013-02-17 22:25:00,
2013-02-17 17:35:00,12.6,4.0,30.05,NW,307,6.0,6.0,68,0.00,,,0.00,Wunderground v.1.15,2013-02-17 22:35:00,
2013-02-17 17:40:00,12.6,4.0,30.05,WNW,286,5.0,6.0,68,0.00,,,0.00,Wunderground v.1.15,2013-02-17 22:40:00,
2013-02-17 17:45:00,12.6,4.3,30.05,WNW,288,6.0,11.0,69,0.00,,,0.00,Wunderground v.1.15,2013-02-17 22:45:00,
2013-02-17 17:55:00,12.4,5.4,30.05,WNW,301,8.0,8.0,73,0.00,,,0.00,Wunderground v.1.15,2013-02-17 22:55:00,
2013-02-17 18:05:00,12.1,6.3,30.05,NW,304,6.0,8.0,77,0.00,,,0.00,Wunderground v.1.15,2013-02-17 23:05:00,
2013-02-17 18:10:00,12.1,6.6,30.05,West,259,6.0,7.0,78,0.00,,,0.00,Wunderground v.1.15,2013-02-17 23:10:00,
2013-02-17 18:15:00,12.1,7.1,30.05,NW,305,6.0,7.0,80,0.00,,,0.00,Wunderground v.1.15,2013-02-17 23:15:00,
2013-02-17 18:25:00,12.1,7.1,30.06,NW,319,6.0,9.0,80,0.00,,,0.00,Wunderground v.1.15,2013-02-17 23:25:00,
2013-02-17 18:30:00,12.2,7.5,30.06,WNW,302,6.0,6.0,81,0.00,,,0.00,Wunderground v.1.15,2013-02-17 23:30:00,
2013-02-17 18:35:00,12.2,7.8,30.06,NW,307,6.0,6.0,82,0.00,,,0.00,Wunderground v.1.15,2013-02-17 23:35:00,
2013-02-17 18:40:00,12.2,7.8,30.06,WNW,298,6.0,6.0,82,0.00,,,0.00,Wunderground v.1.15,2013-02-17 23:40:00,
2013-02-17 18:50:00,12.4,8.2,30.07,WNW,296,6.0,7.0,83,0.00,,,0.00,Wunderground v.1.15,2013-02-17 23:50:00,
2013-02-17 19:00:00,12.6,8.4,30.07,NNW,333,6.0,6.0,83,0.00,,,0.00,Wunderground v.1.15,2013-02-18 00:00:00,
2013-02-17 19:10:00,12.6,8.4,30.07,WNW,302,6.0,6.0,83,0.00,,,0.00,Wunderground v.1.15,2013-02-18 00:10:00,
2013-02-17 19:20:00,12.8,8.6,30.08,NW,319,6.0,9.0,83,0.00,,,0.00,Wunderground v.1.15,2013-02-18 00:20:00,
2013-02-17 19:30:00,13.0,8.8,30.08,WNW,295,6.0,6.0,83,0.00,,,0.00,Wunderground v.1.15,2013-02-18 00:30:00,
2013-02-17 19:40:00,13.2,8.7,30.09,NW,311,6.0,6.0,82,0.00,,,0.00,Wunderground v.1.15,2013-02-18 00:40:00,
2013-02-17 19:45:00,13.3,8.6,30.09,WNW,300,6.0,9.0,81,0.00,,,0.00,Wunderground v.1.15,2013-02-18 00:45:00,
2013-02-17 19:55:00,13.3,8.6,30.09,NW,308,7.0,7.0,81,0.00,,,0.00,Wunderground v.1.15,2013-02-18 00:55:00,
2013-02-17 20:00:00,13.3,8.6,30.09,WNW,302,6.0,15.0,81,0.00,,,0.00,Wunderground v.1.15,2013-02-18 01:00:00,
2013-02-17 20:10:00,13.2,8.7,30.10,NW,304,6.0,6.0,82,0.00,,,0.00,Wunderground v.1.15,2013-02-18 01:10:00,
2013-02-17 20:20:00,13.0,9.3,30.11,WNW,300,7.0,7.0,85,0.00,,,0.00,Wunderground v.1.15,2013-02-18 01:20:00,
2013-02-17 20:25:00,13.0,9.6,30.11,West,281,6.0,7.0,86,0.00,,,0.00,Wunderground v.1.15,2013-02-18 01:25:00,
2013-02-17 20:35:00,12.9,9.5,30.11,NW,321,6.0,6.0,86,0.00,,,0.00,Wunderground v.1.15,2013-02-18 01:35:00,
2013-02-17 20:40:00,12.9,9.5,30.11,NW,314,6.0,8.0,86,0.00,,,0.00,Wunderground v.1.15,2013-02-18 01:40:00,
2013-02-17 20:50:00,12.9,9.2,30.12,NW,323,7.0,7.0,85,0.00,,,0.00,Wunderground v.1.15,2013-02-18 01:50:00,
2013-02-17 20:55:00,12.9,9.0,30.12,NW,316,6.0,7.0,84,0.00,,,0.00,Wunderground v.1.15,2013-02-18 01:55:00,
2013-02-17 21:00:00,12.9,9.0,30.12,WNW,302,6.0,6.0,84,0.00,,,0.00,Wunderground v.1.15,2013-02-18 02:00:00,
2013-02-17 21:10:00,12.9,9.0,30.13,WNW,300,7.0,7.0,84,0.00,,,0.00,Wunderground v.1.15,2013-02-18 02:10:00,
2013-02-17 21:20:00,12.9,9.0,30.13,West,277,6.0,6.0,84,0.00,,,0.00,Wunderground v.1.15,2013-02-18 02:20:00,
2013-02-17 21:25:00,12.9,9.0,30.13,WNW,288,7.0,8.0,84,0.00,,,0.00,Wunderground v.1.15,2013-02-18 02:25:00,
2013-02-17 21:30:00,12.8,9.1,30.13,WNW,297,7.0,7.0,85,0.00,,,0.00,Wunderground v.1.15,2013-02-18 02:30:00,
2013-02-17 21:40:00,12.8,9.4,30.14,North,349,5.0,5.0,86,0.00,,,0.00,Wunderground v.1.15,2013-02-18 02:40:00,
2013-02-17 21:50:00,12.9,9.0,30.14,NW,326,5.0,7.0,84,0.00,,,0.00,Wunderground v.1.15,2013-02-18 02:50:00,
2013-02-17 22:00:00,13.0,8.8,30.15,NNW,337,5.0,11.0,83,0.00,,,0.00,Wunderground v.1.15,2013-02-18 03:00:00,
2013-02-17 22:05:00,13.1,8.6,30.15,WSW,256,5.0,11.0,82,0.00,,,0.00,Wunderground v.1.15,2013-02-18 03:05:00,
2013-02-17 22:10:00,13.1,8.6,30.15,WNW,296,5.0,5.0,82,0.00,,,0.00,Wunderground v.1.15,2013-02-18 03:10:00,
2013-02-17 22:20:00,13.0,8.8,30.15,WNW,297,6.0,9.0,83,0.00,,,0.00,Wunderground v.1.15,2013-02-18 03:20:00,
2013-02-17 22:30:00,12.9,9.0,30.15,NW,311,6.0,6.0,84,0.00,,,0.00,Wunderground v.1.15,2013-02-18 03:30:00,
2013-02-17 22:35:00,12.8,9.1,30.15,West,276,5.0,6.0,85,0.00,,,0.00,Wunderground v.1.15,2013-02-18 03:35:00,
2013-02-17 22:45:00,12.7,8.8,30.16,WNW,296,6.0,6.0,84,0.00,,,0.00,Wunderground v.1.15,2013-02-18 03:45:00,
2013-02-17 22:55:00,12.8,8.6,30.16,NW,315,6.0,7.0,83,0.00,,,0.00,Wunderground v.1.15,2013-02-18 03:55:00,
2013-02-17 23:00:00,12.6,8.9,30.16,West,278,6.0,6.0,85,0.00,,,0.00,Wunderground v.1.15,2013-02-18 04:00:00,
2013-02-17 23:10:00,12.5,9.1,30.17,NW,319,6.0,6.0,86,0.00,,,0.00,Wunderground v.1.15,2013-02-18 04:10:00,
2013-02-17 23:15:00,12.5,9.4,30.17,WNW,294,5.0,6.0,87,0.00,,,0.00,Wunderground v.1.15,2013-02-18 04:15:00,
2013-02-17 23:25:00,12.4,9.3,30.18,WSW,249,5.0,5.0,87,0.00,,,0.00,Wunderground v.1.15,2013-02-18 04:25:00,
2013-02-17 23:30:00,12.5,9.1,30.18,NW,311,6.0,6.0,86,0.00,,,0.00,Wunderground v.1.15,2013-02-18 04:30:00,
2013-02-17 23:35:00,12.5,9.1,30.18,NW,307,6.0,6.0,86,0.00,,,0.00,Wunderground v.1.15,2013-02-18 04:35:00,
2013-02-17 23:40:00,12.5,9.1,30.18,NE,38,6.0,9.0,86,0.00,,,0.00,Wunderground v.1.15,2013-02-18 04:40:00,
2013-02-17 23:50:00,12.5,8.8,30.18,NW,312,6.0,7.0,85,0.00,,,0.00,Wunderground v.1.15,2013-02-18 04:50:00,
2013-02-17 23:55:00,12.5,8.6,30.18,NW,317,6.0,7.0,84,0.00,,,0.00,Wunderground v.1.15,2013-02-18 04:55:00,